• In Uzbekistan
  • List of Countries
  • For 7 days
  • Water Temperature
  • Satellite Maps
  • Weather Map
  • Weather Widgets
  • user-avatar
    Login

    Hourly Weather Mendoza

    Today, 4 December, Sunday

    Time Temperature Precipitation Wind Pressure Humidity
    00:00 +27°C° 0 mm 3 mps 695 mmHg 35%
    01:00 +27°C° 0 mm 3 mps 694 mmHg 36%
    02:00 +26°C° 0 mm 3 mps 694 mmHg 37%
    03:00 +26°C° 0 mm 4 mps 694 mmHg 37%
    04:00 +25°C° 0 mm 4 mps 693 mmHg 38%
    05:00 +27°C° 0 mm 4 mps 694 mmHg 34%
    06:00 +28°C° 0 mm 5 mps 694 mmHg 30%
    07:00 +30°C° 0 mm 5 mps 694 mmHg 26%
    08:00 +33°C° 0 mm 6 mps 694 mmHg 24%
    09:00 +35°C° 0 mm 6 mps 694 mmHg 22%
    10:00 +36°C° 0 mm 7 mps 694 mmHg 19%
    11:00 +39°C° 0 mm 7 mps 693 mmHg 16%
    12:00 +40°C° 0 mm 7 mps 693 mmHg 13%
    13:00 +43°C° 0 mm 7 mps 693 mmHg 11%
    14:00 +43°C° 0 mm 7 mps 692 mmHg 9%
    15:00 +41°C° 0 mm 8 mps 692 mmHg 8%
    16:00 +41°C° 0 mm 8 mps 692 mmHg 7%
    17:00 +39°C° 0 mm 8 mps 692 mmHg 8%
    18:00 +35°C° 0 mm 8 mps 692 mmHg 9%
    19:00 +33°C° 0 mm 8 mps 692 mmHg 10%
    20:00 +32°C° 0 mm 8 mps 692 mmHg 11%
    21:00 +29°C° 0 mm 7 mps 693 mmHg 12%
    22:00 +28°C° 0 mm 7 mps 693 mmHg 13%
    23:00 +27°C° 0 mm 6 mps 693 mmHg 13%

    Tomorrow, 5 December, Monday

    Time Temperature Precipitation Wind Pressure Humidity
    00:00 +26°C° 0 mm 6 mps 693 mmHg 13%
    01:00 +25°C° 0 mm 5 mps 693 mmHg 13%
    02:00 +22°C° 0 mm 6 mps 694 mmHg 21%
    03:00 +21°C° 0 mm 7 mps 695 mmHg 30%
    04:00 +20°C° 0 mm 8 mps 695 mmHg 38%
    05:00 +20°C° 0 mm 7 mps 696 mmHg 38%
    06:00 +20°C° 0 mm 7 mps 696 mmHg 38%
    07:00 +21°C° 0 mm 6 mps 697 mmHg 38%
    08:00 +22°C° 0 mm 6 mps 697 mmHg 34%
    09:00 +24°C° 0 mm 6 mps 697 mmHg 29%
    10:00 +26°C° 0 mm 5 mps 696 mmHg 25%
    11:00 +27°C° 0 mm 5 mps 696 mmHg 23%
    12:00 +29°C° 0 mm 5 mps 696 mmHg 21%
    13:00 +30°C° 0 mm 5 mps 695 mmHg 19%
    14:00 +30°C° 0 mm 5 mps 695 mmHg 19%
    15:00 +30°C° 0 mm 5 mps 695 mmHg 18%
    16:00 +30°C° 0 mm 5 mps 695 mmHg 18%
    17:00 +29°C° 0 mm 5 mps 695 mmHg 21%
    18:00 +27°C° 0 mm 4 mps 696 mmHg 24%
    19:00 +26°C° 0 mm 4 mps 696 mmHg 27%
    20:00 +25°C° 0 mm 3 mps 697 mmHg 30%
    21:00 +24°C° 0 mm 3 mps 697 mmHg 33%
    22:00 +23°C° 0 mm 2 mps 698 mmHg 36%
    23:00 +21°C° 0 mm 2 mps 698 mmHg 38%

    Day after tomorrow, 6 December, Tuesday

    Time Temperature Precipitation Wind Pressure Humidity
    00:00 +21°C° 0 mm 2 mps 697 mmHg 39%
    01:00 +20°C° 0 mm 2 mps 697 mmHg 41%
    02:00 +19°C° 0 mm 3 mps 697 mmHg 43%
    03:00 +19°C° 0 mm 3 mps 697 mmHg 45%
    04:00 +18°C° 0 mm 3 mps 697 mmHg 47%
    05:00 +19°C° 0 mm 3 mps 697 mmHg 41%
    06:00 +20°C° 0 mm 3 mps 697 mmHg 35%
    07:00 +21°C° 0 mm 4 mps 698 mmHg 29%
    08:00 +23°C° 0 mm 4 mps 697 mmHg 26%
    09:00 +25°C° 0 mm 4 mps 697 mmHg 23%
    10:00 +27°C° 0 mm 4 mps 697 mmHg 20%
    11:00 +28°C° 0 mm 4 mps 697 mmHg 19%
    12:00 +29°C° 0 mm 4 mps 696 mmHg 18%
    13:00 +30°C° 0 mm 4 mps 696 mmHg 17%
    14:00 +30°C° 0 mm 3 mps 695 mmHg 17%
    15:00 +31°C° 0 mm 3 mps 695 mmHg 17%
    16:00 +31°C° 0 mm 3 mps 695 mmHg 17%
    17:00 +29°C° 0 mm 3 mps 695 mmHg 20%
    18:00 +28°C° 0 mm 2 mps 695 mmHg 22%
    19:00 +26°C° 0 mm 2 mps 695 mmHg 25%
    20:00 +26°C° 0 mm 2 mps 695 mmHg 25%
    21:00 +25°C° 0 mm 2 mps 695 mmHg 26%
    22:00 +25°C° 0 mm 2 mps 696 mmHg 26%
    23:00 +24°C° 0.1 mm 3 mps 695 mmHg 28%

    7 December, Wednesday

    Time Temperature Precipitation Wind Pressure Humidity
    00:00 +24°C° 0.1 mm 3 mps 695 mmHg 29%
    01:00 +22°C° 0.1 mm 4 mps 694 mmHg 31%
    02:00 +21°C° 0.1 mm 4 mps 694 mmHg 33%
    03:00 +21°C° 0.1 mm 4 mps 694 mmHg 36%
    04:00 +20°C° 0.1 mm 4 mps 694 mmHg 38%
    05:00 +21°C° 0 mm 5 mps 695 mmHg 36%
    06:00 +22°C° 0 mm 5 mps 695 mmHg 33%
    07:00 +23°C° 0 mm 5 mps 696 mmHg 31%
    08:00 +26°C° 0 mm 5 mps 696 mmHg 29%
    09:00 +27°C° 0 mm 6 mps 696 mmHg 28%
    10:00 +29°C° 0 mm 6 mps 696 mmHg 26%
    11:00 +29°C° 0 mm 6 mps 696 mmHg 27%
    12:00 +30°C° 0 mm 6 mps 695 mmHg 27%
    13:00 +32°C° 0 mm 5 mps 695 mmHg 27%
    14:00 +30°C° 0.4 mm 5 mps 695 mmHg 28%
    15:00 +30°C° 0.4 mm 5 mps 695 mmHg 30%
    16:00 +30°C° 0.4 mm 5 mps 694 mmHg 31%
    17:00 +28°C° 0.8 mm 5 mps 695 mmHg 34%
    18:00 +27°C° 0.8 mm 5 mps 696 mmHg 38%
    19:00 +26°C° 0.8 mm 5 mps 696 mmHg 42%
    20:00 +25°C° 0.7 mm 5 mps 697 mmHg 43%
    21:00 +23°C° 0.7 mm 5 mps 697 mmHg 45%
    22:00 +23°C° 0.7 mm 6 mps 698 mmHg 47%
    23:00 +22°C° 0.2 mm 6 mps 698 mmHg 47%

    8 December, Thursday

    Time Temperature Precipitation Wind Pressure Humidity
    00:00 +21°C° 0.2 mm 6 mps 698 mmHg 48%
    01:00 +21°C° 0.2 mm 6 mps 697 mmHg 49%
    02:00 +20°C° 0.1 mm 6 mps 698 mmHg 51%
    03:00 +20°C° 0.1 mm 7 mps 698 mmHg 53%
    04:00 +18°C° 0.1 mm 7 mps 698 mmHg 55%
    05:00 +18°C° 0.3 mm 7 mps 698 mmHg 57%
    06:00 +17°C° 0.3 mm 6 mps 698 mmHg 59%
    07:00 +17°C° 0.3 mm 6 mps 698 mmHg 61%
    08:00 +17°C° 1.1 mm 6 mps 698 mmHg 63%
    09:00 +17°C° 1.1 mm 5 mps 698 mmHg 66%
    10:00 +17°C° 1.1 mm 5 mps 698 mmHg 69%
    11:00 +17°C° 2 mm 5 mps 697 mmHg 70%
    12:00 +17°C° 2 mm 5 mps 697 mmHg 71%
    13:00 +17°C° 2 mm 5 mps 696 mmHg 73%
    14:00 +19°C° 0.5 mm 6 mps 696 mmHg 69%
    15:00 +19°C° 0.5 mm 6 mps 696 mmHg 65%
    16:00 +20°C° 0.5 mm 6 mps 696 mmHg 61%
    17:00 +19°C° 0.2 mm 5 mps 696 mmHg 61%
    18:00 +19°C° 0.2 mm 5 mps 697 mmHg 62%
    19:00 +19°C° 0.2 mm 4 mps 697 mmHg 62%
    20:00 +18°C° 0.2 mm 3 mps 697 mmHg 62%
    21:00 +18°C° 0.2 mm 3 mps 697 mmHg 61%
    22:00 +18°C° 0.2 mm 2 mps 697 mmHg 61%
    23:00 +18°C° 0 mm 2 mps 697 mmHg 59%

    9 December, Friday

    Time Temperature Precipitation Wind Pressure Humidity
    00:00 +18°C° 0 mm 2 mps 696 mmHg 58%
    01:00 +18°C° 0 mm 2 mps 696 mmHg 57%
    02:00 +18°C° 0 mm 2 mps 696 mmHg 56%
    03:00 +17°C° 0 mm 2 mps 696 mmHg 55%
    04:00 +17°C° 0 mm 2 mps 696 mmHg 54%
    05:00 +19°C° 0 mm 2 mps 696 mmHg 49%
    06:00 +21°C° 0 mm 2 mps 697 mmHg 44%
    07:00 +24°C° 0 mm 3 mps 698 mmHg 38%
    08:00 +26°C° 0 mm 2 mps 698 mmHg 35%
    09:00 +27°C° 0 mm 2 mps 698 mmHg 31%
    10:00 +29°C° 0 mm 2 mps 698 mmHg 27%
    11:00 +30°C° 0 mm 2 mps 697 mmHg 25%
    12:00 +30°C° 0 mm 2 mps 697 mmHg 23%
    13:00 +31°C° 0 mm 2 mps 697 mmHg 21%
    14:00 +31°C° 0 mm 2 mps 696 mmHg 21%
    15:00 +32°C° 0 mm 2 mps 696 mmHg 20%
    16:00 +32°C° 0 mm 1 mps 695 mmHg 20%
    17:00 +30°C° 0 mm 2 mps 696 mmHg 23%
    18:00 +29°C° 0 mm 2 mps 696 mmHg 26%
    19:00 +27°C° 0 mm 2 mps 696 mmHg 30%
    20:00 +27°C° 0 mm 2 mps 696 mmHg 31%
    21:00 +26°C° 0 mm 2 mps 696 mmHg 33%
    22:00 +25°C° 0 mm 1 mps 696 mmHg 34%
    23:00 +25°C° 0 mm 1 mps 696 mmHg 35%
    Show more